Year,Month,Day,Hour,Minute,Value (Times are PST for temperature in C)
2016,06,17,00,00,10.60
2016,06,17,00,01,10.60
2016,06,17,00,02,10.60
2016,06,17,00,03,10.60
2016,06,17,00,04,10.60
2016,06,17,00,05,10.60
2016,06,17,00,06,10.60
2016,06,17,00,07,10.60
2016,06,17,00,08,10.60
2016,06,17,00,09,10.60
2016,06,17,00,10,10.60
2016,06,17,00,11,10.60
2016,06,17,00,12,10.60
2016,06,17,00,13,10.60
2016,06,17,00,14,10.60
2016,06,17,00,15,10.60
2016,06,17,00,16,10.60
2016,06,17,00,17,10.60
2016,06,17,00,18,10.60
2016,06,17,00,19,10.60
2016,06,17,00,20,10.60
2016,06,17,00,21,10.60
2016,06,17,00,22,10.60
2016,06,17,00,23,10.60
2016,06,17,00,24,10.60
2016,06,17,00,25,10.60
2016,06,17,00,26,10.60
2016,06,17,00,27,10.60
2016,06,17,00,28,10.60
2016,06,17,00,29,10.60
2016,06,17,00,30,10.60
2016,06,17,00,31,10.60
2016,06,17,00,32,10.60
2016,06,17,00,33,10.60
2016,06,17,00,34,10.60
2016,06,17,00,35,10.60
2016,06,17,00,36,10.60
2016,06,17,00,37,10.60
2016,06,17,00,38,10.60
2016,06,17,00,39,10.60
2016,06,17,00,40,10.60
2016,06,17,00,41,10.60
2016,06,17,00,42,10.60
2016,06,17,00,43,10.60
2016,06,17,00,44,10.50
2016,06,17,00,45,10.60
2016,06,17,00,46,10.60
2016,06,17,00,47,10.50
2016,06,17,00,48,10.50
2016,06,17,00,49,10.50
2016,06,17,00,50,10.50
2016,06,17,00,51,10.50
2016,06,17,00,52,10.50
2016,06,17,00,53,10.50
2016,06,17,00,54,10.50
2016,06,17,00,55,10.50
2016,06,17,00,56,10.50
2016,06,17,00,57,10.50
2016,06,17,00,58,10.40
2016,06,17,00,59,10.40
2016,06,17,01,00,10.40
2016,06,17,01,01,10.40
2016,06,17,01,02,10.40
2016,06,17,01,03,10.40
2016,06,17,01,04,10.40
2016,06,17,01,05,10.40
2016,06,17,01,06,10.40
2016,06,17,01,07,10.40
2016,06,17,01,08,10.40
2016,06,17,01,09,10.30
2016,06,17,01,10,10.30
2016,06,17,01,11,10.30
2016,06,17,01,12,10.30
2016,06,17,01,13,10.30
2016,06,17,01,14,10.30
2016,06,17,01,15,10.30
2016,06,17,01,16,10.30
2016,06,17,01,17,10.30
2016,06,17,01,18,10.30
2016,06,17,01,19,10.30
2016,06,17,01,20,10.20
2016,06,17,01,21,10.20
2016,06,17,01,22,10.20
2016,06,17,01,23,10.20
2016,06,17,01,24,10.20
2016,06,17,01,25,10.20
2016,06,17,01,26,10.20
2016,06,17,01,27,10.10
2016,06,17,01,28,10.10
2016,06,17,01,29,10.10
2016,06,17,01,30,10.10
2016,06,17,01,31,10.10
2016,06,17,01,32,10.10
2016,06,17,01,33,10.00
2016,06,17,01,34,10.00
2016,06,17,01,35,10.00
2016,06,17,01,36,10.00
2016,06,17,01,37,9.90
2016,06,17,01,38,9.90
2016,06,17,01,39,9.90
2016,06,17,01,40,9.90
2016,06,17,01,41,9.90
2016,06,17,01,42,9.90
2016,06,17,01,43,9.90
2016,06,17,01,44,9.80
2016,06,17,01,45,9.80
2016,06,17,01,46,9.80
2016,06,17,01,47,9.80
2016,06,17,01,48,9.80
2016,06,17,01,49,9.80
2016,06,17,01,50,9.80
2016,06,17,01,51,9.80
2016,06,17,01,52,9.70
2016,06,17,01,53,9.70
2016,06,17,01,54,9.70
2016,06,17,01,55,9.70
2016,06,17,01,56,9.70
2016,06,17,01,57,9.70
2016,06,17,01,58,9.70
2016,06,17,01,59,9.70
2016,06,17,02,00,9.70
2016,06,17,02,01,9.70
2016,06,17,02,02,9.70
2016,06,17,02,03,9.70
2016,06,17,02,04,9.60
2016,06,17,02,05,9.60
2016,06,17,02,06,9.60
2016,06,17,02,07,9.60
2016,06,17,02,08,9.60
2016,06,17,02,09,9.50
2016,06,17,02,10,9.50
2016,06,17,02,11,9.50
2016,06,17,02,12,9.50
2016,06,17,02,13,9.50
2016,06,17,02,14,9.50
2016,06,17,02,15,9.50
2016,06,17,02,16,9.50
2016,06,17,02,17,9.50
2016,06,17,02,18,9.50
2016,06,17,02,19,9.50
2016,06,17,02,20,9.50
2016,06,17,02,21,9.50
2016,06,17,02,22,9.50
2016,06,17,02,23,9.50
2016,06,17,02,24,9.50
2016,06,17,02,25,9.40
2016,06,17,02,26,9.40
2016,06,17,02,27,9.40
2016,06,17,02,28,9.40
2016,06,17,02,29,9.40
2016,06,17,02,30,9.40
2016,06,17,02,31,9.40
2016,06,17,02,32,9.40
2016,06,17,02,33,9.30
2016,06,17,02,34,9.30
2016,06,17,02,35,9.30
2016,06,17,02,36,9.30
2016,06,17,02,37,9.30
2016,06,17,02,38,9.30
2016,06,17,02,39,9.30
2016,06,17,02,40,9.30
2016,06,17,02,41,9.30
2016,06,17,02,42,9.20
2016,06,17,02,43,9.20
2016,06,17,02,44,9.20
2016,06,17,02,45,9.20
2016,06,17,02,46,9.20
2016,06,17,02,47,9.20
2016,06,17,02,48,9.20
2016,06,17,02,49,9.20
2016,06,17,02,50,9.20
2016,06,17,02,51,9.20
2016,06,17,02,52,9.20
2016,06,17,02,53,9.10
2016,06,17,02,54,9.10
2016,06,17,02,55,9.10
2016,06,17,02,56,9.10
2016,06,17,02,57,9.10
2016,06,17,02,58,9.10
2016,06,17,02,59,9.10
2016,06,17,03,00,9.10
2016,06,17,03,01,9.10
2016,06,17,03,02,9.10
2016,06,17,03,03,9.10
2016,06,17,03,05,9.00
2016,06,17,03,06,9.00
2016,06,17,03,07,9.00
2016,06,17,03,08,9.00
2016,06,17,03,09,8.90
2016,06,17,03,10,8.90
2016,06,17,03,11,8.90
2016,06,17,03,12,8.90
2016,06,17,03,13,8.90
2016,06,17,03,14,8.90
2016,06,17,03,15,8.90
2016,06,17,03,16,8.90
2016,06,17,03,17,8.90
2016,06,17,03,18,8.90
2016,06,17,03,19,8.90
2016,06,17,03,20,8.90
2016,06,17,03,21,8.90
2016,06,17,03,22,8.80
2016,06,17,03,23,8.80
2016,06,17,03,24,8.80
2016,06,17,03,25,8.80
2016,06,17,03,26,8.80
2016,06,17,03,27,8.80
2016,06,17,03,28,8.80
2016,06,17,03,29,8.80
2016,06,17,03,30,8.80
2016,06,17,03,31,8.80
2016,06,17,03,32,8.80
2016,06,17,03,33,8.80
2016,06,17,03,34,8.80
2016,06,17,03,35,8.80
2016,06,17,03,36,8.80
2016,06,17,03,37,8.70
2016,06,17,03,38,8.70
2016,06,17,03,39,8.70
2016,06,17,03,40,8.70
2016,06,17,03,41,8.70
2016,06,17,03,42,8.70
2016,06,17,03,43,8.70
2016,06,17,03,44,8.70
2016,06,17,03,45,8.70
2016,06,17,03,46,8.70
2016,06,17,03,47,8.70
2016,06,17,03,48,8.60
2016,06,17,03,49,8.70
2016,06,17,03,50,8.70
2016,06,17,03,51,8.70
2016,06,17,03,52,8.70
2016,06,17,03,53,8.70
2016,06,17,03,54,8.60
2016,06,17,03,55,8.60
2016,06,17,03,56,8.60
2016,06,17,03,57,8.60
2016,06,17,03,58,8.60
2016,06,17,03,59,8.60
2016,06,17,04,00,8.60
2016,06,17,04,01,8.60
2016,06,17,04,02,8.60
2016,06,17,04,03,8.60
2016,06,17,04,04,8.60
2016,06,17,04,05,8.60
2016,06,17,04,06,8.60
2016,06,17,04,07,8.60
2016,06,17,04,08,8.60
2016,06,17,04,09,8.60
2016,06,17,04,10,8.50
2016,06,17,04,11,8.60
2016,06,17,04,12,8.60
2016,06,17,04,13,8.50
2016,06,17,04,14,8.50
2016,06,17,04,15,8.50
2016,06,17,04,16,8.40
2016,06,17,04,17,8.40
2016,06,17,04,18,8.40
2016,06,17,04,19,8.40
2016,06,17,04,20,8.40
2016,06,17,04,21,8.40
2016,06,17,04,22,8.40
2016,06,17,04,23,8.40
2016,06,17,04,24,8.30
2016,06,17,04,25,8.30
2016,06,17,04,26,8.30
2016,06,17,04,27,8.30
2016,06,17,04,28,8.30
2016,06,17,04,29,8.30
2016,06,17,04,30,8.30
2016,06,17,04,31,8.30
2016,06,17,04,32,8.30
2016,06,17,04,33,8.30
2016,06,17,04,34,8.20
2016,06,17,04,35,8.20
2016,06,17,04,36,8.20
2016,06,17,04,37,8.20
2016,06,17,04,38,8.20
2016,06,17,04,39,8.20
2016,06,17,04,40,8.20
2016,06,17,04,41,8.10
2016,06,17,04,42,8.10
2016,06,17,04,43,8.00
2016,06,17,04,44,8.00
2016,06,17,04,45,8.00
2016,06,17,04,46,7.90
2016,06,17,04,47,7.90
2016,06,17,04,48,7.90
2016,06,17,04,49,7.90
2016,06,17,04,50,7.80
2016,06,17,04,51,7.80
2016,06,17,04,52,7.80
2016,06,17,04,53,7.80
2016,06,17,04,54,7.80
2016,06,17,04,55,7.80
2016,06,17,04,56,7.90
2016,06,17,04,57,7.90
2016,06,17,04,58,7.90
2016,06,17,04,59,7.90
2016,06,17,05,00,7.90
2016,06,17,05,01,7.90
2016,06,17,05,02,7.90
2016,06,17,05,03,7.90
2016,06,17,05,04,7.90
2016,06,17,05,05,7.90
2016,06,17,05,06,7.90
2016,06,17,05,07,7.90
2016,06,17,05,08,7.90
2016,06,17,05,09,7.80
2016,06,17,05,10,7.80
2016,06,17,05,11,7.80
2016,06,17,05,12,7.80
2016,06,17,05,13,7.80
2016,06,17,05,14,7.80
2016,06,17,05,15,7.80
2016,06,17,05,16,7.80
2016,06,17,05,17,7.80
2016,06,17,05,18,7.80
2016,06,17,05,19,7.70
2016,06,17,05,20,7.70
2016,06,17,05,21,7.70
2016,06,17,05,22,7.70
2016,06,17,05,23,7.70
2016,06,17,05,24,7.70
2016,06,17,05,25,7.70
2016,06,17,05,26,7.70
2016,06,17,05,27,7.70
2016,06,17,05,28,7.70
2016,06,17,05,29,7.70
2016,06,17,05,30,7.70
2016,06,17,05,31,7.70
2016,06,17,05,32,7.70
2016,06,17,05,33,7.70
2016,06,17,05,34,7.70
2016,06,17,05,35,7.70
2016,06,17,05,36,7.60
2016,06,17,05,37,7.60
2016,06,17,05,38,7.60
2016,06,17,05,39,7.60
2016,06,17,05,40,7.60
2016,06,17,05,41,7.60
2016,06,17,05,42,7.60
2016,06,17,05,43,7.60
2016,06,17,05,44,7.60
2016,06,17,05,45,7.60
2016,06,17,05,46,7.60
2016,06,17,05,47,7.60
2016,06,17,05,48,7.60
2016,06,17,05,49,7.60
2016,06,17,05,50,7.60
2016,06,17,05,51,7.60
2016,06,17,05,52,7.60
2016,06,17,05,53,7.60
2016,06,17,05,54,7.60
2016,06,17,05,55,7.60
2016,06,17,05,56,7.50
2016,06,17,05,57,7.50
2016,06,17,05,58,7.50
2016,06,17,05,59,7.50
2016,06,17,06,00,7.50
2016,06,17,06,01,7.50
2016,06,17,06,02,7.50
2016,06,17,06,03,7.50
2016,06,17,06,04,7.40
2016,06,17,06,05,7.40
2016,06,17,06,06,7.40
2016,06,17,06,07,7.40
2016,06,17,06,08,7.40
2016,06,17,06,09,7.40
2016,06,17,06,10,7.40
2016,06,17,06,11,7.40
2016,06,17,06,12,7.40
2016,06,17,06,13,7.40
2016,06,17,06,14,7.50
2016,06,17,06,15,7.50
2016,06,17,06,16,7.50
2016,06,17,06,17,7.60
2016,06,17,06,18,7.60
2016,06,17,06,19,7.60
2016,06,17,06,20,7.60
2016,06,17,06,21,7.70
2016,06,17,06,22,7.70
2016,06,17,06,23,7.70
2016,06,17,06,24,7.70
2016,06,17,06,25,7.70
2016,06,17,06,26,7.80
2016,06,17,06,27,7.80
2016,06,17,06,28,7.90
2016,06,17,06,29,7.90
2016,06,17,06,30,7.90
2016,06,17,06,31,7.90
2016,06,17,06,32,7.90
2016,06,17,06,33,7.90
2016,06,17,06,34,7.90
2016,06,17,06,35,8.00
2016,06,17,06,36,8.00
2016,06,17,06,37,8.00
2016,06,17,06,38,8.00
2016,06,17,06,39,8.10
2016,06,17,06,40,8.10
2016,06,17,06,41,8.20
2016,06,17,06,42,8.20
2016,06,17,06,43,8.20
2016,06,17,06,44,8.20
2016,06,17,06,45,8.30
2016,06,17,06,46,8.30
2016,06,17,06,47,8.40
2016,06,17,06,48,8.40
2016,06,17,06,49,8.40
2016,06,17,06,50,8.30
2016,06,17,06,51,8.40
2016,06,17,06,52,8.40
2016,06,17,06,53,8.40
2016,06,17,06,54,8.40
2016,06,17,06,55,8.40
2016,06,17,06,56,8.40
2016,06,17,06,57,8.40
2016,06,17,06,58,8.40
2016,06,17,06,59,8.40
2016,06,17,07,00,8.40
2016,06,17,07,01,8.50
2016,06,17,07,02,8.50
2016,06,17,07,03,8.50
2016,06,17,07,04,8.50
2016,06,17,07,05,8.50
2016,06,17,07,06,8.50
2016,06,17,07,07,8.60
2016,06,17,07,08,8.60
2016,06,17,07,09,8.60
2016,06,17,07,10,8.60
2016,06,17,07,11,8.60
2016,06,17,07,12,8.60
2016,06,17,07,13,8.60
2016,06,17,07,14,8.60
2016,06,17,07,15,8.60
2016,06,17,07,16,8.60
2016,06,17,07,17,8.60
2016,06,17,07,18,8.60
2016,06,17,07,19,8.60
2016,06,17,07,20,8.70
2016,06,17,07,21,8.70
2016,06,17,07,22,8.70
2016,06,17,07,23,8.70
2016,06,17,07,24,8.70
2016,06,17,07,25,8.80
2016,06,17,07,26,8.80
2016,06,17,07,27,8.80
2016,06,17,07,28,8.80
2016,06,17,07,29,8.90
2016,06,17,07,30,8.90
2016,06,17,07,31,8.90
2016,06,17,07,32,8.90
2016,06,17,07,33,8.90
2016,06,17,07,34,8.90
2016,06,17,07,35,9.00
2016,06,17,07,36,9.00
2016,06,17,07,37,9.00
2016,06,17,07,38,9.10
2016,06,17,07,39,9.10
2016,06,17,07,40,9.20
2016,06,17,07,41,9.20
2016,06,17,07,42,9.20
2016,06,17,07,43,9.20
2016,06,17,07,44,9.30
2016,06,17,07,45,9.30
2016,06,17,07,46,9.30
2016,06,17,07,47,9.40
2016,06,17,07,48,9.40
2016,06,17,07,49,9.50
2016,06,17,07,50,9.50
2016,06,17,07,51,9.60
2016,06,17,07,52,9.70
2016,06,17,07,53,9.70
2016,06,17,07,54,9.80
2016,06,17,07,55,9.90
2016,06,17,07,56,9.90
2016,06,17,07,57,10.00
2016,06,17,07,58,10.10
2016,06,17,07,59,10.20
2016,06,17,08,00,10.20
2016,06,17,08,01,10.30
2016,06,17,08,02,10.40
2016,06,17,08,03,10.50
2016,06,17,08,04,10.60
2016,06,17,08,05,10.70
2016,06,17,08,06,10.70
2016,06,17,08,07,10.80
2016,06,17,08,08,10.90
2016,06,17,08,09,11.00
2016,06,17,08,10,11.00
2016,06,17,08,11,11.10
2016,06,17,08,12,11.20
2016,06,17,08,13,11.30
2016,06,17,08,14,11.40
2016,06,17,08,15,11.40
2016,06,17,08,16,11.50
2016,06,17,08,17,11.50
2016,06,17,08,18,11.60
2016,06,17,08,19,11.70
2016,06,17,08,20,11.70
2016,06,17,08,21,11.80
2016,06,17,08,22,11.80
2016,06,17,08,23,11.90
2016,06,17,08,24,11.90
2016,06,17,08,25,12.00
2016,06,17,08,26,12.10
2016,06,17,08,27,12.20
2016,06,17,08,28,12.30
2016,06,17,08,29,12.40
2016,06,17,08,30,12.40
2016,06,17,08,31,12.50
2016,06,17,08,32,12.60
2016,06,17,08,33,12.60
2016,06,17,08,34,12.70
2016,06,17,08,35,12.80
2016,06,17,08,36,12.90
2016,06,17,08,37,12.90
2016,06,17,08,38,13.00
2016,06,17,08,39,13.10
2016,06,17,08,40,13.10
2016,06,17,08,41,13.10
2016,06,17,08,42,13.10
2016,06,17,08,43,13.10
2016,06,17,08,44,13.20
2016,06,17,08,45,13.20
2016,06,17,08,46,13.20
2016,06,17,08,47,13.30
2016,06,17,08,48,13.30
2016,06,17,08,49,13.30
2016,06,17,08,50,13.30
2016,06,17,08,51,13.40
2016,06,17,08,52,13.40
2016,06,17,08,53,13.40
2016,06,17,08,54,13.50
2016,06,17,08,55,13.60
2016,06,17,08,56,13.60
2016,06,17,08,57,13.70
2016,06,17,08,58,13.80
2016,06,17,08,59,13.80
2016,06,17,09,00,13.80
2016,06,17,09,01,13.90
2016,06,17,09,02,13.90
2016,06,17,09,03,13.90
2016,06,17,09,04,13.90
2016,06,17,09,05,13.90
2016,06,17,09,06,13.90
2016,06,17,09,07,13.90
2016,06,17,09,08,14.00
2016,06,17,09,09,14.10
2016,06,17,09,10,14.20
2016,06,17,09,11,14.30
2016,06,17,09,12,14.30
2016,06,17,09,13,14.30
2016,06,17,09,14,14.40
2016,06,17,09,15,14.40
2016,06,17,09,16,14.50
2016,06,17,09,17,14.60
2016,06,17,09,18,14.70
2016,06,17,09,19,14.70
2016,06,17,09,20,14.80
2016,06,17,09,21,14.70
2016,06,17,09,22,14.70
2016,06,17,09,23,14.70
2016,06,17,09,24,14.70
2016,06,17,09,25,14.60
2016,06,17,09,26,14.70
2016,06,17,09,27,14.70
2016,06,17,09,28,14.70
2016,06,17,09,29,14.80
2016,06,17,09,30,14.80
2016,06,17,09,31,14.80
2016,06,17,09,32,14.80
2016,06,17,09,33,14.80
2016,06,17,09,34,14.80
2016,06,17,09,35,14.80
2016,06,17,09,36,14.80
2016,06,17,09,37,14.80
2016,06,17,09,38,14.80
2016,06,17,09,39,14.80
2016,06,17,09,40,14.80
2016,06,17,09,41,14.80
2016,06,17,09,42,14.90
2016,06,17,09,43,14.90
2016,06,17,09,44,14.90
2016,06,17,09,45,14.90
2016,06,17,09,46,15.00
2016,06,17,09,47,15.00
2016,06,17,09,48,15.10
2016,06,17,09,49,15.10
2016,06,17,09,50,15.10
2016,06,17,09,51,15.10
2016,06,17,09,52,15.20
2016,06,17,09,53,15.30
2016,06,17,09,54,15.40
2016,06,17,09,55,15.40
2016,06,17,09,56,15.40
2016,06,17,09,57,15.50
2016,06,17,09,58,15.50
2016,06,17,09,59,15.60
2016,06,17,10,00,15.60
2016,06,17,10,01,15.60
2016,06,17,10,02,15.60
2016,06,17,10,03,15.60
2016,06,17,10,04,15.50
2016,06,17,10,05,15.50
2016,06,17,10,06,15.50
2016,06,17,10,07,15.60
2016,06,17,10,08,15.60
2016,06,17,10,09,15.60
2016,06,17,10,10,15.60
2016,06,17,10,11,15.70
2016,06,17,10,12,15.70
2016,06,17,10,13,15.80
2016,06,17,10,14,15.90
2016,06,17,10,15,15.90
2016,06,17,10,16,15.90
2016,06,17,10,17,15.90
2016,06,17,10,18,15.80
2016,06,17,10,19,15.80
2016,06,17,10,20,15.80
2016,06,17,10,21,15.90
2016,06,17,10,22,15.90
2016,06,17,10,23,16.00
2016,06,17,10,24,16.00
2016,06,17,10,25,16.10
2016,06,17,10,26,16.10
2016,06,17,10,27,16.20
2016,06,17,10,28,16.20
2016,06,17,10,29,16.20
2016,06,17,10,30,16.20
2016,06,17,10,31,16.30
2016,06,17,10,32,16.30
2016,06,17,10,33,16.30
2016,06,17,10,34,16.30
2016,06,17,10,35,16.30
2016,06,17,10,36,16.40
2016,06,17,10,37,16.40
2016,06,17,10,38,16.50
2016,06,17,10,39,16.60
2016,06,17,10,40,16.60
2016,06,17,10,41,16.70
2016,06,17,10,42,16.70
2016,06,17,10,43,16.70
2016,06,17,10,44,16.70
2016,06,17,10,45,16.70
2016,06,17,10,46,16.80
2016,06,17,10,47,16.80
2016,06,17,10,48,16.80
2016,06,17,10,49,16.80
2016,06,17,10,50,16.80
2016,06,17,10,51,16.80
2016,06,17,10,52,16.90
2016,06,17,10,53,16.90
2016,06,17,10,54,17.00
2016,06,17,10,55,17.00
2016,06,17,10,56,17.10
2016,06,17,10,57,17.10
2016,06,17,10,58,17.10
2016,06,17,10,59,17.20
2016,06,17,11,00,17.10
2016,06,17,11,01,17.10
2016,06,17,11,02,17.00
2016,06,17,11,03,16.90
2016,06,17,11,04,16.90
2016,06,17,11,05,16.90
2016,06,17,11,06,17.00
2016,06,17,11,07,17.00
2016,06,17,11,08,17.10
2016,06,17,11,09,17.10
2016,06,17,11,10,17.20
2016,06,17,11,11,17.20
2016,06,17,11,12,17.20
2016,06,17,11,13,17.30
2016,06,17,11,14,17.30
2016,06,17,11,15,17.20
2016,06,17,11,16,17.20
2016,06,17,11,17,17.10
2016,06,17,11,18,17.10
2016,06,17,11,19,17.10
2016,06,17,11,20,17.10
2016,06,17,11,21,17.20
2016,06,17,11,22,17.20
2016,06,17,11,23,17.20
2016,06,17,11,24,17.20
2016,06,17,11,25,17.20
2016,06,17,11,26,17.30
2016,06,17,11,27,17.30
2016,06,17,11,28,17.30
2016,06,17,11,29,17.20
2016,06,17,11,30,17.20
2016,06,17,11,31,17.20
2016,06,17,11,32,17.30
2016,06,17,11,33,17.30
2016,06,17,11,34,17.30
2016,06,17,11,35,17.30
2016,06,17,11,36,17.30
2016,06,17,11,37,17.40
2016,06,17,11,38,17.40
2016,06,17,11,39,17.50
2016,06,17,11,40,17.60
2016,06,17,11,41,17.60
2016,06,17,11,42,17.60
2016,06,17,11,43,17.60
2016,06,17,11,44,17.60
2016,06,17,11,45,17.60
2016,06,17,11,46,17.60
2016,06,17,11,47,17.70
2016,06,17,11,48,17.70
2016,06,17,11,49,17.80
2016,06,17,11,50,17.90
2016,06,17,11,51,18.00
2016,06,17,11,52,18.10
2016,06,17,11,53,18.20
2016,06,17,11,54,18.20
2016,06,17,11,55,18.20
2016,06,17,11,56,18.20
2016,06,17,11,57,18.20
2016,06,17,11,58,18.20
2016,06,17,11,59,18.20
2016,06,17,12,00,18.20
2016,06,17,12,01,18.20
2016,06,17,12,02,18.20
2016,06,17,12,03,18.20
2016,06,17,12,04,18.20
2016,06,17,12,05,18.10
2016,06,17,12,06,18.00
2016,06,17,12,07,18.00
2016,06,17,12,08,18.00
2016,06,17,12,09,18.10
2016,06,17,12,10,18.10
2016,06,17,12,11,18.20
2016,06,17,12,12,18.30
2016,06,17,12,13,18.30
2016,06,17,12,14,18.40
2016,06,17,12,15,18.40
2016,06,17,12,16,18.50
2016,06,17,12,17,18.60
2016,06,17,12,18,18.60
2016,06,17,12,19,18.70
2016,06,17,12,20,18.80
2016,06,17,12,21,18.80
2016,06,17,12,22,18.90
2016,06,17,12,23,18.90
2016,06,17,12,24,19.00
2016,06,17,12,25,18.90
2016,06,17,12,26,18.90
2016,06,17,12,27,18.90
2016,06,17,12,28,19.00
2016,06,17,12,29,19.00
2016,06,17,12,30,19.00
2016,06,17,12,31,19.00
2016,06,17,12,32,18.90
2016,06,17,12,33,18.80
2016,06,17,12,34,18.80
2016,06,17,12,35,18.70
2016,06,17,12,36,18.70
2016,06,17,12,37,18.60
2016,06,17,12,38,18.70
2016,06,17,12,39,18.80
2016,06,17,12,40,18.80
2016,06,17,12,41,18.90
2016,06,17,12,42,18.90
2016,06,17,12,43,19.00
2016,06,17,12,44,19.10
2016,06,17,12,45,19.20
2016,06,17,12,46,19.20
2016,06,17,12,47,19.20
2016,06,17,12,48,19.20
2016,06,17,12,49,19.30
2016,06,17,12,50,19.30
2016,06,17,12,51,19.30
2016,06,17,12,52,19.20
2016,06,17,12,53,19.20
2016,06,17,12,54,19.10
2016,06,17,12,55,19.10
2016,06,17,12,56,19.00
2016,06,17,12,57,18.90
2016,06,17,12,58,18.90
2016,06,17,12,59,18.90
2016,06,17,13,00,18.80
2016,06,17,13,01,18.90
2016,06,17,13,02,18.90
2016,06,17,13,03,18.90
2016,06,17,13,04,18.90
2016,06,17,13,05,18.90
2016,06,17,13,06,18.90
2016,06,17,13,07,18.80
2016,06,17,13,08,18.80
2016,06,17,13,09,18.90
2016,06,17,13,10,18.90
2016,06,17,13,11,18.90
2016,06,17,13,12,18.90
2016,06,17,13,13,18.80
2016,06,17,13,14,18.80
2016,06,17,13,15,18.80
2016,06,17,13,16,18.80
2016,06,17,13,17,18.80
2016,06,17,13,18,18.80
2016,06,17,13,19,18.80
2016,06,17,13,20,18.80
2016,06,17,13,21,18.90
2016,06,17,13,22,18.90
2016,06,17,13,23,19.00
2016,06,17,13,24,19.10
2016,06,17,13,25,19.20
2016,06,17,13,26,19.30
2016,06,17,13,27,19.30
2016,06,17,13,28,19.40
2016,06,17,13,29,19.40
2016,06,17,13,30,19.40
2016,06,17,13,31,19.40
2016,06,17,13,32,19.40
2016,06,17,13,33,19.30
2016,06,17,13,34,19.30
2016,06,17,13,35,19.30
2016,06,17,13,36,19.30
2016,06,17,13,37,19.30
2016,06,17,13,38,19.30
2016,06,17,13,39,19.30
2016,06,17,13,40,19.30
2016,06,17,13,41,19.40
2016,06,17,13,42,19.40
2016,06,17,13,43,19.40
2016,06,17,13,44,19.40
2016,06,17,13,45,19.40
2016,06,17,13,46,19.40
2016,06,17,13,47,19.30
2016,06,17,13,48,19.30
2016,06,17,13,49,19.30
2016,06,17,13,50,19.30
2016,06,17,13,51,19.30
2016,06,17,13,52,19.30
2016,06,17,13,53,19.30
2016,06,17,13,54,19.30
2016,06,17,13,55,19.30
2016,06,17,13,56,19.20
2016,06,17,13,57,19.10
2016,06,17,13,58,19.00
2016,06,17,13,59,19.00
2016,06,17,14,00,19.00
2016,06,17,14,01,19.10
2016,06,17,14,02,19.20
2016,06,17,14,03,19.20
2016,06,17,14,04,19.20
2016,06,17,14,05,19.30
2016,06,17,14,06,19.30
2016,06,17,14,07,19.40
2016,06,17,14,08,19.40
2016,06,17,14,09,19.40
2016,06,17,14,10,19.40
2016,06,17,14,11,19.50
2016,06,17,14,12,19.60
2016,06,17,14,13,19.70
2016,06,17,14,14,19.70
2016,06,17,14,15,19.70
2016,06,17,14,16,19.70
2016,06,17,14,17,19.60
2016,06,17,14,18,19.60
2016,06,17,14,19,19.70
2016,06,17,14,20,19.70
2016,06,17,14,21,19.70
2016,06,17,14,22,19.80
2016,06,17,14,23,19.80
2016,06,17,14,24,19.80
2016,06,17,14,25,19.90
2016,06,17,14,26,20.00
2016,06,17,14,27,20.10
2016,06,17,14,28,20.20
2016,06,17,14,29,20.20
2016,06,17,14,30,20.30
2016,06,17,14,31,20.30
2016,06,17,14,32,20.30
2016,06,17,14,33,20.20
2016,06,17,14,34,20.10
2016,06,17,14,35,20.00
2016,06,17,14,36,20.00
2016,06,17,14,37,19.90
2016,06,17,14,38,20.00
2016,06,17,14,39,20.00
2016,06,17,14,40,20.00
2016,06,17,14,41,20.10
2016,06,17,14,42,20.10
2016,06,17,14,43,20.10
2016,06,17,14,44,20.10
2016,06,17,14,45,20.10
2016,06,17,14,46,20.10
2016,06,17,14,47,20.10
2016,06,17,14,48,20.10
2016,06,17,14,49,20.10
2016,06,17,14,50,20.10
2016,06,17,14,51,20.10
2016,06,17,14,52,20.10
2016,06,17,14,53,20.20
2016,06,17,14,54,20.20
2016,06,17,14,55,20.30
2016,06,17,14,56,20.30
2016,06,17,14,57,20.30
2016,06,17,14,58,20.30
2016,06,17,14,59,20.30
2016,06,17,15,00,20.30
2016,06,17,15,01,20.40
2016,06,17,15,02,20.40
2016,06,17,15,03,20.40
2016,06,17,15,04,20.40
2016,06,17,15,05,20.40
2016,06,17,15,06,20.40
2016,06,17,15,07,20.30
2016,06,17,15,08,20.30
2016,06,17,15,09,20.40
2016,06,17,15,10,20.40
2016,06,17,15,11,20.50
2016,06,17,15,12,20.60
2016,06,17,15,13,20.60
2016,06,17,15,14,20.70
2016,06,17,15,15,20.60
2016,06,17,15,16,20.70
2016,06,17,15,17,20.60
2016,06,17,15,18,20.60
2016,06,17,15,19,20.60
2016,06,17,15,20,20.60
2016,06,17,15,21,20.50
2016,06,17,15,22,20.40
2016,06,17,15,23,20.30
2016,06,17,15,24,20.30
2016,06,17,15,25,20.20
2016,06,17,15,26,20.20
2016,06,17,15,27,20.20
2016,06,17,15,28,20.20
2016,06,17,15,29,20.30
2016,06,17,15,30,20.30
2016,06,17,15,31,20.40
2016,06,17,15,32,20.40
2016,06,17,15,33,20.40
2016,06,17,15,34,20.30
2016,06,17,15,35,20.30
2016,06,17,15,36,20.30
2016,06,17,15,37,20.30
2016,06,17,15,38,20.40
2016,06,17,15,39,20.40
2016,06,17,15,40,20.40
2016,06,17,15,41,20.50
2016,06,17,15,42,20.60
2016,06,17,15,43,20.60
2016,06,17,15,44,20.60
2016,06,17,15,45,20.60
2016,06,17,15,46,20.60
2016,06,17,15,47,20.60
2016,06,17,15,48,20.60
2016,06,17,15,49,20.60
2016,06,17,15,50,20.60
2016,06,17,15,51,20.60
2016,06,17,15,52,20.50
2016,06,17,15,53,20.50
2016,06,17,15,54,20.50
2016,06,17,15,55,20.60
2016,06,17,15,56,20.60
2016,06,17,15,57,20.70
2016,06,17,15,58,20.80
2016,06,17,15,59,20.90
2016,06,17,16,00,21.00
2016,06,17,16,01,21.10
2016,06,17,16,02,21.10
2016,06,17,16,03,21.20
2016,06,17,16,04,21.20
2016,06,17,16,05,21.20
2016,06,17,16,06,21.20
2016,06,17,16,07,21.20
2016,06,17,16,08,21.30
2016,06,17,16,09,21.30
2016,06,17,16,10,21.30
2016,06,17,16,11,21.20
2016,06,17,16,12,21.00
2016,06,17,16,13,20.90
2016,06,17,16,14,20.80
2016,06,17,16,15,20.80
2016,06,17,16,16,20.80
2016,06,17,16,17,20.80
2016,06,17,16,18,20.80
2016,06,17,16,19,20.80
2016,06,17,16,20,20.90
2016,06,17,16,21,20.90
2016,06,17,16,22,20.90
2016,06,17,16,23,20.90
2016,06,17,16,24,20.90
2016,06,17,16,25,20.80
2016,06,17,16,26,20.80
2016,06,17,16,27,20.70
2016,06,17,16,28,20.70
2016,06,17,16,29,20.70
2016,06,17,16,30,20.70
2016,06,17,16,31,20.70
2016,06,17,16,32,20.80
2016,06,17,16,33,20.90
2016,06,17,16,34,20.90
2016,06,17,16,35,20.90
2016,06,17,16,36,21.00
2016,06,17,16,37,21.10
2016,06,17,16,38,21.10
2016,06,17,16,39,21.10
2016,06,17,16,40,21.00
2016,06,17,16,41,21.00
2016,06,17,16,42,20.90
2016,06,17,16,43,20.90
2016,06,17,16,44,20.90
2016,06,17,16,45,20.80
2016,06,17,16,46,20.80
2016,06,17,16,47,20.70
2016,06,17,16,48,20.60
2016,06,17,16,49,20.60
2016,06,17,16,50,20.70
2016,06,17,16,51,20.80
2016,06,17,16,52,20.90
2016,06,17,16,53,21.10
2016,06,17,16,54,21.20
2016,06,17,16,55,21.30
2016,06,17,16,56,21.40
2016,06,17,16,57,21.40
2016,06,17,16,58,21.40
2016,06,17,16,59,21.50
2016,06,17,17,00,21.50
2016,06,17,17,01,21.50
2016,06,17,17,02,21.50
2016,06,17,17,03,21.50
2016,06,17,17,04,21.50
2016,06,17,17,05,21.50
2016,06,17,17,06,21.50
2016,06,17,17,07,21.50
2016,06,17,17,08,21.60
2016,06,17,17,09,21.60
2016,06,17,17,10,21.70
2016,06,17,17,11,21.70
2016,06,17,17,12,21.70
2016,06,17,17,13,21.60
2016,06,17,17,14,21.50
2016,06,17,17,15,21.50
2016,06,17,17,16,21.50
2016,06,17,17,17,21.50
2016,06,17,17,18,21.60
2016,06,17,17,19,21.60
2016,06,17,17,20,21.60
2016,06,17,17,21,21.60
2016,06,17,17,22,21.60
2016,06,17,17,23,21.60
2016,06,17,17,24,21.70
2016,06,17,17,25,21.70
2016,06,17,17,26,21.70
2016,06,17,17,27,21.70
2016,06,17,17,28,21.70
2016,06,17,17,29,21.70
2016,06,17,17,30,21.70
2016,06,17,17,31,21.70
2016,06,17,17,32,21.70
2016,06,17,17,33,21.70
2016,06,17,17,34,21.60
2016,06,17,17,35,21.60
2016,06,17,17,36,21.60